Terug naar catalogus

STARLINK-37538

ActiefCommunicatieSSO
NORAD 68844·PAYLOAD·🇺🇸 United States

Gelanceerd Apr 26, 2026 vanaf Vandenberg Space Force Base

Loading…

Volgende Passages (komende 24 uur)

TLE

VersSource: CelesTrak SupGP

Epoch: Sep 15, 2026, 02:45 UTC

1 68844C 26094F   26258.11506944 -.00046688  00000+0 -14494-2 0  2589
2 68844  97.2835 271.2728 0001403  90.4656 126.0077 15.33461863    17

Volg STARLINK-37538 in realtime met AllMySat

Download on the App Store